Flag for United Kingdom Weather past 2 weeks in Bridlington, England, United Kingdom

Now
38 °F

Chilly.


Feels Like: 29 °F
Forecast: 42 / 49 °F
Wind: 16 mph from Northwest

Location: Bridlington Mrsc

Current Time: Mar 30, 2015 at 7:24:43 AM

Latest Report: Mar 30, 2015 at 6:00 AM


Visibility: N/A

Pressure: 29.50 "Hg

Humidity: 84%

Dew point: 33 °F

Location of BridlingtonLocation

Historic Weather in Bridlington — Graph

°F

Bridlington temperature yesterday

Maximum temperature yesterday: 49 °F (at 5:00 PM)
Minimum temperature yesterday: 41 °F (at 11:00 PM)
Average temperature yesterday: 45 °F

Past Weeks' High & Low Weather Summary

 TemperatureHumidityPressure
High60 °F (Mar 28, 3:00 PM)100% (Mar 20, 12:00 AM)30.57 "Hg (Mar 20, 12:00 AM)
Low35 °F (Mar 22, 6:00 AM)47% (Mar 27, 12:00 PM)29.15 "Hg (Mar 29, 1:00 PM)
Average43 °F83%30.05 "Hg
* Reported Mar 15 5:00 AM — Mar 30 6:00 AM, Bridlington, Weather by CustomWeather, © 2015

Note: Actual official high and low records may vary slightly from our data, if they occured in-between our weather recording intervals... More about our weather records

Advertising

Bridlington weather history for previous 24 hours

 ConditionsComfort  
Time TempWeatherWind HumidityBarometerVisibility
6:00 AM
Mon, Mar 30
38 °FChilly.16 mph84%29.50 "HgN/A
5:00 AM39 °FChilly.20 mph78%29.44 "HgN/A
4:00 AM40 °FChilly.21 mph74%29.41 "HgN/A
3:00 AM39 °FChilly.14 mph74%29.41 "HgN/A
2:00 AM40 °FQuite cool.17 mph68%29.38 "HgN/A
1:00 AM40 °FChilly.14 mph73%29.35 "HgN/A
12:00 AM41 °FQuite cool.21 mph67%29.32 "HgN/A
11:00 PM
Sun, Mar 29
41 °FQuite cool.13 mph75%29.32 "HgN/A
9:00 PM43 °FQuite cool.16 mph72%29.29 "HgN/A
8:00 PM45 °FCool.17 mph79%29.26 "HgN/A
7:00 PM47 °FCool.14 mph67%29.23 "HgN/A
6:00 PM47 °FCool.13 mph73%29.21 "HgN/A
5:00 PM49 °FCool.17 mph68%29.18 "HgN/A
4:00 PM48 °FCool.15 mph75%29.18 "HgN/A
3:00 PM47 °FCool.16 mph79%29.15 "HgN/A
2:00 PM44 °FQuite cool.10 mph91%29.15 "HgN/A
1:00 PM45 °FCool.8 mph90%29.15 "HgN/A
12:00 PM45 °FCool.6 mph82%29.18 "HgN/A
11:00 AM47 °FCool.12 mph74%29.23 "HgN/A
10:00 AM46 °FCool.10 mph74%29.26 "HgN/A
9:00 AM46 °FCool.8 mph76%29.32 "HgN/A
8:00 AM45 °FQuite cool.7 mph75%29.35 "HgN/A
7:00 AM44 °FQuite cool.12 mph76%29.35 "HgN/A
Weather by CustomWeather, © 2015

See weather overviewHow to use our weather pages